This is the latest recevied weather packets stored in our database for station/object WB5CFT. If no packets are shown the sender has not sent any weather packets the latest 10 day(s).
| Time | Temp. | Humidity | Pressure | Rain* | Wind** | Luminosity | Snow |
|---|---|---|---|---|---|---|---|
| 1777417321 | 32.78° C | 11% | 1012.2 hPa | 0 mm | - | 318 W/m² | - |
| 1777417018 | 32.78° C | 11% | 1012.4 hPa | 0 mm | - | 339 W/m² | - |
| 1777416713 | 32.78° C | 11% | 1012.3 hPa | 0 mm | - | 351 W/m² | - |
| 1777416409 | 32.22° C | 11% | 1012.4 hPa | 0 mm | - | 323 W/m² | - |
| 1777416103 | 32.22° C | 11% | 1012.4 hPa | 0 mm | - | 364 W/m² | - |
| 1777415798 | 32.22° C | 10% | 1012.4 hPa | 0 mm | - | 389 W/m² | - |
| 1777415495 | 32.78° C | 11% | 1012.6 hPa | 0 mm | - | 312 W/m² | - |
| 1777415190 | 32.22° C | 11% | 1012.6 hPa | 0 mm | - | 424 W/m² | - |
| 1777414886 | 32.22° C | 10% | 1012.7 hPa | 0 mm | - | 445 W/m² | - |
| 1777414585 | 32.78° C | 11% | 1012.8 hPa | 0 mm | - | 467 W/m² | - |
| 1777414280 | 32.78° C | 10% | 1012.7 hPa | 0 mm | - | 486 W/m² | - |
| 1777413975 | 32.22° C | 11% | 1012.7 hPa | 0 mm | - | 539 W/m² | - |
| 1777413670 | 32.22° C | 10% | 1012.8 hPa | 0 mm | - | 504 W/m² | - |
| 1777413367 | 32.78° C | 10% | 1012.6 hPa | 0 mm | - | 528 W/m² | - |
| 1777413063 | 32.78° C | 11% | 1012.8 hPa | 0 mm | - | 508 W/m² | - |
| 1777412758 | 32.78° C | 10% | 1013 hPa | 0 mm | - | 557 W/m² | - |
| 1777412456 | 32.22° C | 10% | 1012.8 hPa | 0 mm | - | 574 W/m² | - |
| 1777412154 | 32.22° C | 10% | 1013 hPa | 0 mm | - | 590 W/m² | - |
| 1777411850 | 32.78° C | 11% | 1013.2 hPa | 0 mm | - | 602 W/m² | - |
| 1777411549 | 32.22° C | 10% | 1013.3 hPa | 0 mm | - | 616 W/m² | - |
| 1777411244 | 32.78° C | 11% | 1013.3 hPa | 0 mm | - | 627 W/m² | - |
| 1777410939 | 32.22° C | 10% | 1013.2 hPa | 0 mm | - | 644 W/m² | - |
| 1777410639 | 32.78° C | 11% | 1013.2 hPa | 0 mm | - | 653 W/m² | - |
| 1777410334 | 32.22° C | 11% | 1013.4 hPa | 0 mm | - | 670 W/m² | - |
| 1777410028 | 32.22° C | 10% | 1013.4 hPa | 0 mm | - | 678 W/m² | - |
* Rain latest hour (hover to see other rain measurements)
** Current wind speed in m/s (hover to see current wind gust speed)